Date,TemperatureHighF,TemperatureAvgF,TemperatureLowF,DewpointHighF,DewpointAvgF,DewpointLowF,HumidityHigh,HumidityAvg,HumidityLow,PressureMaxIn,PressureMinIn,WindSpeedMaxMPH,WindSpeedAvgMPH,GustSpeedMaxMPH,PrecipitationSumIn
2013-2-1,16.2,13.8,10.2,12.0,9.9,7.0,88,85,75,30.28,29.96,10,2,16,0.02
2013-2-2,18.2,14.3,7.8,15.0,9.7,3.0,89,82,70,30.20,30.04,2,0,5,0.23
2013-2-3,19.3,14.7,7.8,16.0,10.8,4.0,87,84,81,30.07,29.92,10,1,18,0.01
2013-2-4,23.9,17.9,12.0,18.0,13.2,8.0,87,82,71,30.06,29.93,3,0,8,0.01
2013-2-5,28.4,19.6,7.1,26.0,15.8,3.0,89,85,78,30.05,29.81,7,1,17,0.01
2013-2-6,33.6,25.2,12.2,21.0,17.9,9.0,88,75,61,30.29,30.06,4,1,12,0.00
2013-2-7,32.4,29.7,27.0,30.0,25.1,20.0,91,83,73,30.25,29.89,7,1,10,0.47
2013-2-8,33.9,28.4,18.2,28.0,22.9,13.0,91,81,61,30.40,29.89,7,1,11,0.10
2013-2-9,33.5,20.6,7.0,21.0,13.8,3.0,87,76,59,30.47,30.24,6,1,10,0.00
2013-2-10,41.3,29.8,18.9,39.0,25.5,15.0,92,84,74,30.23,29.58,8,2,18,0.10
2013-2-11,44.1,35.3,30.0,42.0,30.7,23.0,92,83,71,29.91,29.52,20,7,33,0.12
2013-2-12,29.9,28.4,26.3,24.0,22.6,20.0,82,79,76,30.08,29.92,12,4,16,0.00
2013-2-13,39.3,30.6,22.8,30.0,24.6,19.0,87,79,64,29.95,29.74,8,1,12,0.00
2013-2-14,40.0,33.2,28.3,33.0,29.5,24.0,91,86,74,29.92,29.64,17,3,21,0.09
2013-2-15,27.9,24.4,20.7,23.0,16.6,14.0,92,72,58,30.18,29.93,10,2,14,0.00
2013-2-16,22.9,18.8,13.1,17.0,12.9,9.0,87,78,58,30.16,30.07,7,1,13,0.00
2013-2-17,24.4,15.5,5.1,11.0,7.3,1.0,85,71,53,30.27,30.15,5,1,9,0.00
2013-2-18,45.3,34.1,18.5,40.0,24.5,10.0,89,69,57,30.17,29.44,10,2,19,0.10
2013-2-19,43.0,24.8,16.2,40.0,21.6,13.0,90,87,84,30.01,29.38,19,6,26,0.11
2013-2-20,22.8,19.2,15.2,16.0,12.7,10.0,84,76,66,30.34,30.01,14,3,19,0.00
2013-2-21,27.0,22.8,20.0,18.0,15.7,13.0,79,74,66,30.41,30.20,9,2,15,0.00
2013-2-22,32.3,25.9,20.2,30.0,22.7,14.0,92,88,77,30.21,29.87,13,3,21,0.25
2013-2-23,30.5,27.9,24.9,29.0,25.0,22.0,92,88,79,29.94,29.86,10,2,17,0.03
2013-2-24,37.0,30.4,22.9,28.0,24.5,19.0,90,79,62,30.18,29.92,11,2,14,0.00
2013-2-25,40.4,28.8,15.7,27.0,21.0,13.0,90,74,53,30.25,30.11,4,0,7,0.00
2013-2-26,33.8,31.0,27.6,31.0,25.2,21.0,92,79,68,30.14,29.55,23,3,27,0.51
2013-2-27,36.3,34.0,32.5,34.0,31.9,31.0,93,91,88,29.63,29.50,2,0,5,0.08
2013-2-28,37.8,33.7,30.3,31.0,29.0,24.0,92,83,74,30.03,29.63,5,1,10,0.00